Flag for Germany Weather past 2 weeks in Kempten, Bavaria, Germany

Now
59 °F

Clear.


Feels Like: 59 °F
Forecast: 50 / 74 °F
Wind: No wind

Location: Kempten

Current Time: Sep 17, 2014 at 9:49:25 PM

Latest Report: Sep 17, 2014 at 9:00 PM


Visibility: 9 mi

Pressure: 29.89 "Hg

Humidity: 93%

Dew point: 57 °F

Location of KemptenLocation

Historic Weather in Kempten — Graph

°F

Kempten temperature yesterday

Maximum temperature yesterday: 72 °F (at 3:00 PM)
Minimum temperature yesterday: 49 °F (at 7:00 AM)
Average temperature yesterday: 59 °F

Past Weeks' High & Low Weather Summary

 TemperatureHumidityPressure
High77 °F (Sep 8, 5:00 PM)99% (Sep 10, 1:00 AM)30.18 "Hg (Sep 10, 1:00 AM)
Low48 °F (Sep 17, 7:00 AM)40% (Sep 8, 5:00 PM)29.79 "Hg (Sep 17, 4:00 PM)
Average58 °F83%30.00 "Hg
* Reported Sep 2 8:00 PM — Sep 17 8:00 PM, Kempten, Weather by CustomWeather, © 2014

Note: Actual official high and low records may vary slightly from our data, if they occured in-between our weather recording intervals... More about our weather records

Advertising

Kempten weather history for previous 24 hours

 ConditionsComfort  
Time TempWeatherWind HumidityBarometerVisibility
8:00 PM
Sep 17
63 °FClear.No wind84%29.87 "Hg16 mi
7:00 PM68 °FSunny.1 mph68%29.83 "Hg19 mi
6:00 PM71 °FSunny.2 mph59%29.82 "Hg31 mi
5:00 PM73 °FSunny.2 mph55%29.80 "Hg19 mi
4:00 PM74 °FSunny.2 mph53%29.79 "Hg9 mi
3:00 PM74 °FSunny.1 mph53%29.81 "Hg12 mi
2:00 PM74 °FSunny.2 mph46%29.83 "Hg28 mi
1:00 PM71 °FSunny.2 mph53%29.85 "Hg22 mi
12:00 PM69 °FSunny.2 mph59%29.87 "Hg22 mi
10:00 AM60 °FSunny.1 mph74%29.92 "Hg19 mi
9:00 AM55 °FSunny.2 mph81%29.94 "Hg22 mi
8:00 AM50 °FSunny.2 mph93%29.97 "Hg16 mi
7:00 AM48 °FSunny.3 mph97%29.98 "Hg6 mi
6:00 AM49 °FClear.2 mph96%29.97 "Hg9 mi
4:00 AM49 °FFog.2 mph97%29.97 "Hg4 mi
3:00 AM50 °FFog.2 mph97%29.97 "Hg3 mi
2:00 AM51 °FFog.2 mph97%29.97 "Hg2 mi
1:00 AM51 °FFog.2 mph97%29.98 "Hg2 mi
12:00 AM53 °FFog.1 mph96%29.98 "Hg3 mi
11:00 PM
Sep 16
54 °FClear.No wind94%29.98 "Hg5 mi
10:00 PM56 °FClear.1 mph94%29.97 "Hg5 mi
9:00 PM59 °FClear.1 mph89%29.97 "Hg9 mi
Weather by CustomWeather, © 2014

See weather overviewHow to use our weather pages